Chicago Midway International Airport (MDW)


Airport Diagram
Current Weather/Forecast (VFR Conditions)
METAR KMDW 240753Z 22003KT 10SM BKN190 OVC250 05/M01 A2992 RMK AO2 SLP135 T00501011
TAF

All Charts
General
Chart Name Download
AIRPORT DIAGRAM
TAKEOFF MINIMUMS
ALTERNATE MINIMUMS
HOT SPOT

Departures
Chart Name Download
CICERO TWO
MIDWAY FIVE

Arrivals
Chart Name Download
ENDEE FOUR (RNAV)
ENDEE FOUR (RNAV), CONT.1
FISSK FOUR (RNAV)
GOSHEN SEVEN
MOTIF SIX
MOTIF SIX, CONT.1
PANGG THREE (RNAV)

Approaches
Chart Name Download
ILS OR LOC RWY 13C
ILS OR LOC/DME RWY 04R
ILS OR LOC/DME RWY 31C
RNAV (RNP) X RWY 22L
RNAV (RNP) Y RWY 04R
RNAV (RNP) Y RWY 13C
RNAV (RNP) Y RWY 22L
RNAV (RNP) Y RWY 31C
RNAV (GPS) RWY 04L
RNAV (GPS) RWY 13L
RNAV (GPS) RWY 22R
RNAV (GPS) RWY 31R
RNAV (GPS) Z RWY 04R
RNAV (GPS) Z RWY 13C
RNAV (GPS) Z RWY 22L
RNAV (GPS) Z RWY 31C